パンスターズ彗星

C/2017 D5 ( PanSTARRS )

English version
Home page
Updated on May 20, 2017

---------------------------------------------------------------------

・ プロフィール

発見日 2017年2月23日
発見光度 20.4等
発見者 Pan-STARRS 1 telescope (Haleakala)

・ 軌道要素

Epoch 2017 Jan. 7.0 TT = JDT 2457760.5
T 2017 Jan. 8.85800 TT                                  MPCW
q   2.1671716            (2000.0)            P               Q
z  +0.0088824      Peri.  287.81863     -0.63889543     +0.15550379
 +/-0.0000652      Node    92.72033     +0.53885518     +0.78942458
e   0.9807502      Incl.  131.03898     -0.54904255     +0.59382439
From 74 observations 2017 Feb. 10-Mar. 31, mean residual 0".5.

・ 光度変化

        m1 = 16.0 + 5 logΔ + 10.0 log r

---------------------------------------------------------------------

軌道要素はM.P.E.C. 2017-J52に掲載されたものです。
光度グラフはComet for Windowsで作成したものです。

---------------------------------------------------------------------

Copyright(C) Seiichi Yoshida (comet@aerith.net). All rights reserved.